Regional Weather Roundup
Issued by NWS

Home | Current Version | Previous Version | Graphics & Text | Print | Product List | Glossary On
Versions: 1 2 3 4 5 6 7 8 9 10 11 12 13 14 15 16 17 18 19 20 21 22 23 24 25 26 27 28 29 30 31 32 33 34 35 36 37 38 39 40 41 42 43 44 45 46 47 48 49 50
000
ASUS43 KLOT 170903
RWRIL

ILLINOIS REGIONAL WEATHER ROUNDUP
NATIONAL WEATHER SERVICE CHICAGO/ROMEOVILLE IL
300 AM CST TUE JAN 17 2017

NOTE: "FAIR" INDICATES FEW OR NO CLOUDS BELOW 12,000 FEET WITH NO
SIGNIFICANT WEATHER AND/OR OBSTRUCTIONS TO VISIBILITY.

* THESE STATIONS ARE NOT UNDER NWS QUALITY CONTROL. THEY ALSO MAY NOT
  REPORT WEATHER SUCH AS PRECIPITATION OR FOG.

ILZ001-002-007-009-015-016-024-171000-
NORTHWEST ILLINOIS

CITY           SKY/WX    TMP DP  RH WIND       PRES   REMARKS
MOLINE         FOG       36  34  92 W6        29.83R VSB 1/2 WCI  31
STERLING*      CLOUDY    36  36 100 CALM      29.79F
SAVANNA*       CLOUDY    35  34  99 NW6       29.81S FOG     WCI  30
$$

ILZ003-004-008-010-011-017-018-171000-
NORTH CENTRAL ILLINOIS

CITY           SKY/WX    TMP DP  RH WIND       PRES   REMARKS
ROCKFORD       RAIN      37  35  92 NW3       29.80R FOG
FREEPORT*      CLOUDY    34  33  99 N3        29.80F FOG
ROCHELLE*      LGT RAIN  35  35 100 N7        29.78F WCI  29
DE KALB*       FOG       36  36 100 NW6       29.76S VSB 3/4 WCI  31
$$

ILZ005-006-012>014-019>023-171000-
NORTHEAST ILLINOIS

CITY           SKY/WX    TMP DP  RH WIND       PRES   REMARKS
CHICAGO-OHARE  CLOUDY    38  38 100 NW6       29.73F FOG     WCI  33
CHICAGO-MIDWAY LGT RAIN  38  37  97 CALM      29.73F FOG
AURORA         CLOUDY    37  35  92 N6        29.74F WCI  32
LANSING*       CLOUDY    50  50 100 SW15G22   29.74F
JOLIET*        FOG       42  42 100 CALM      29.75F VSB 1/2
WAUKEGAN       RAIN      38  38 100 NE6       29.74F FOG     WCI  33
DUPAGE AIRPORT LGT RAIN  37  36  96 N3        29.73F FOG
WHEELING       CLOUDY    38  37  97 NW5       29.75F WCI  34
MORRIS*        FOG       37  37  98 SW3       29.75R VSB 3/4
ROMEOVILLE*    FOG       39  39 100 CALM      29.74F VSB 3/4
NORTHERLY ISL    N/A     37  37 100 CALM        N/A
$$

LMZ740>746-171000-
SOUTHERN LAKE MICHIGAN

STATION/POSITION SKY/WX   TEMP    WIND        PRES    VSBY  WAVE
                          AIR SEA DIR/SP/G                  HT/PER
                          (F)     (DEG/KT/KT) (MB)    (MI)  (FT/S)
HARRISON CRIB              40     360/  3/  4   N/A
BURNHAM HARBOR             37      CALM  /  7   N/A
CALUMET HARBOR             46     260/  4/ 12 1006.9R
BURNS HARBOR               51     190/ 13/ 17 1007.8F
$$

ILZ025>027-034>036-040-047-049-050-058-095>099-171000-
WEST-CENTRAL ILLINOIS

CITY           SKY/WX    TMP DP  RH WIND       PRES   REMARKS
QUINCY         CLOUDY    42  41  96 W14       29.88R
GALESBURG*     FOG       37  37 100 SW3       29.85R VSB 1/4
MACOMB*        CLOUDY    41  41 100 W16       29.87R FOG
JACKSONVILLE*  CLOUDY    45  41  88 W12G17    29.88S
PITTSFIELD*    CLOUDY    44  41  89 W14G20    29.90S
$$

ILZ028>032-037-038-041>044-048-051>054-059>061-171000-
CENTRAL ILLINOIS

CITY           SKY/WX    TMP DP  RH WIND       PRES   REMARKS
BLOOMINGTON    FOG       46  46 100 W21       29.82R VSB 3/4
DECATUR        CLOUDY    50  49  96 W17G24    29.85R
PEORIA         FOG       45  45 100 W8        29.84R VSB 3/4
LACON*         CLOUDY    40  40 100 SW6       29.81R
LINCOLN*       CLOUDY    48  47  96 W8        29.85R
SPRINGFIELD    CLOUDY    48  43  82 W13       29.87R
TAYLORVILLE    CLOUDY    47  45  92 W14G22    29.88R
$$

ILZ033-039-045-046-055>057-062-063-171000-
EAST-CENTRAL ILLINOIS

CITY           SKY/WX    TMP DP  RH WIND       PRES   REMARKS
CHAMPAIGN      CLOUDY    52  49  89 W20G28    29.81R
MATTOON        LGT RAIN  52  49  89 W15G26    29.84R
PARIS*         RAIN      57  56  97 SW18G24   29.81F
$$

ILZ079-100>102-171000-
SOUTHWEST ILLINOIS

CITY           SKY/WX    TMP DP  RH WIND       PRES   REMARKS
ALTON          CLOUDY    46  40  81 W14       29.92R
BELLEVILLE     CLOUDY    49  47  93 W12       29.91R
CAHOKIA*       CLOUDY    49  41  74 W13       29.93R
SPARTA*        CLOUDY    51  47  88 W10       29.93S
$$

ILZ064>066-069>071-074>076-080>082-084>086-088>090-092>094-171000-
SOUTH-CENTRAL ILLINOIS

CITY           SKY/WX    TMP DP  RH WIND       PRES   REMARKS
CARBONDALE     NOT AVBL
CAIRO*         CLOUDY    59  58  97 SW9       29.92F
EFFINGHAM*     CLOUDY    53  52  99 W12       29.88S
MARION         MOCLDY    61  59  94 SW7       29.91S
MT. VERNON     MOCLDY    57  55  94 W17G24    29.90R
CENTRALIA*     CLOUDY    52  48  86 W14G21    29.91R
SALEM*         CLOUDY    53  49  87 W13       29.90R
$$

ILZ067-068-072-073-078-083-087-091-171000-
SOUTHEAST ILLINOIS

CITY           SKY/WX    TMP DP  RH WIND       PRES   REMARKS
LAWRENCEVILLE  CLOUDY    58  57  97 S14       29.87S
FLORA*         CLOUDY    60  57  91 SW10      29.87R
HARRISBURG*    MOCLDY    60  58  92 SW9       29.91R
ROBINSON*      CLOUDY    57  56  94 S12G17    29.86F
CARMI*         MOCLDY    58  57  99 S10       29.89S
$$

ABBREVIATIONS USED IN REMARKS
   TC - TEMPERATURE IN CELSIUS
  WCI - WIND CHILL INDEX
   HX - HEAT INDEX
  VSB - VISIBILITY
$$




USA.gov is the U.S. government's official web portal to all federal, state and local government web resources and services.